Date String (YYYY-MM-DD hh:mm:ss) UTC,Instrument flags,Ambient pressure (hPa),Sample flow (lpm),Bypass flow (lpm),Sample temperature (°C),Ambient temperature (°C),ASC tube jacket temperature (°C),LED temperature (°C),Box temperature (°C),Sample RH (%),Span deviation,Mass concentration (μg/m³),Mass concentration (μg/m³),Mass concentration (μg/m³)
DateTimeUTC,F1_M11,P_M11,Q1_M11,Q2_M11,T1_M11,T2_M11,T3_M11,T4_M11,T5_M11,U1_M11,ZSPAN_M11,X0_M11,X2_M11,X1_M11
2021-08-30 06:00:00,,0828.3,5.01,0.00,29.6,28.6,00.0,38.7,31.5,29.8,0001.6,0024.57,0016.20,0015.11
2021-08-30 06:01:00,,0828.2,4.99,0.00,29.7,28.7,00.0,38.7,31.5,29.7,0001.8,0024.53,0016.19,0015.06
2021-08-30 06:02:00,,0828.3,5.02,0.00,29.7,28.8,00.0,38.7,31.5,29.6,0002.0,0024.35,0016.16,0015.02
2021-08-30 06:03:00,,0828.4,4.98,0.00,29.7,28.8,00.0,38.7,31.6,29.6,0002.1,0024.68,0016.10,0014.98
2021-08-30 06:04:00,,0828.3,4.99,0.00,29.8,28.9,00.0,38.7,31.6,30.1,0002.1,0023.77,0015.99,0014.91
2021-08-30 06:05:00,,0828.2,4.98,0.00,29.8,29.0,00.0,38.8,31.7,30.2,0002.4,0023.40,0015.84,0014.81
2021-08-30 06:06:00,,0828.2,5.01,0.00,29.8,29.0,00.0,38.8,31.7,30.2,0002.5,0023.65,0015.76,0014.71
2021-08-30 06:07:00,,0828.4,5.00,0.00,29.9,28.9,00.0,38.8,31.7,30.2,0002.5,0023.97,0015.73,0014.64
2021-08-30 06:08:00,,0828.2,4.99,0.00,29.8,27.3,00.0,38.8,31.3,30.0,0002.7,0023.83,0015.71,0014.59
2021-08-30 06:09:00,,0828.2,5.01,0.00,29.7,26.3,00.0,38.8,31.0,30.4,0002.7,0023.54,0015.63,0014.56
2021-08-30 06:10:00,,0828.2,5.00,0.00,29.6,26.4,00.0,38.8,31.0,30.7,0002.7,0023.20,0015.58,0014.51
2021-08-30 06:11:00,,0828.4,5.00,0.00,29.5,26.8,00.0,38.7,31.1,30.9,0002.8,0022.46,0015.52,0014.46
2021-08-30 06:12:00,,0828.3,4.99,0.00,29.5,27.2,00.0,38.7,31.1,30.9,0002.8,0022.19,0015.42,0014.38
2021-08-30 06:13:00,,0828.2,5.01,0.00,29.5,27.6,00.0,38.7,31.2,30.7,0002.5,0021.99,0015.35,0014.31
2021-08-30 06:14:00,,0828.3,4.99,0.00,29.5,27.8,00.0,38.7,31.2,30.5,0002.4,0022.05,0015.33,0014.27
2021-08-30 06:15:00,,0828.3,5.01,0.00,29.5,28.1,00.0,38.7,31.3,30.2,0002.5,0022.88,0015.44,0014.27
2021-08-30 06:16:00,,0828.2,5.00,0.00,29.6,28.3,00.0,38.7,31.3,29.9,0002.3,0023.57,0015.58,0014.33
2021-08-30 06:17:00,,0828.2,4.99,0.00,29.6,28.4,00.0,38.7,31.4,29.8,0002.3,0025.42,0015.78,0014.42
2021-08-30 06:18:00,,0828.2,5.00,0.00,29.6,28.5,00.0,38.7,31.4,29.8,0002.3,0026.26,0015.90,0014.50
2021-08-30 06:19:00,,0828.2,5.00,0.00,29.7,28.6,00.0,38.7,31.5,29.7,0002.2,0026.72,0016.03,0014.56
2021-08-30 06:20:00,,0828.2,5.00,0.00,29.7,28.7,00.0,38.7,31.5,29.6,0002.2,0027.69,0016.20,0014.63
2021-08-30 06:21:00,,0828.2,5.01,0.00,29.7,28.8,00.0,38.7,31.5,29.5,0002.0,0028.19,0016.39,0014.73
2021-08-30 06:22:00,,0828.2,5.01,0.00,29.7,28.9,00.0,38.7,31.6,29.4,0001.9,0028.72,0016.58,0014.84
2021-08-30 06:23:00,,0828.3,5.00,0.00,29.8,28.9,00.0,38.8,31.6,29.3,0002.0,0029.60,0016.72,0014.95
2021-08-30 06:24:00,,0828.3,4.99,0.00,29.8,29.0,00.0,38.8,31.6,29.3,0002.1,0031.02,0016.86,0015.04
2021-08-30 06:25:00,,0828.2,5.00,0.00,29.8,29.0,00.0,38.8,31.7,29.2,0001.9,0031.76,0017.03,0015.13
2021-08-30 06:26:00,,0828.2,5.01,0.00,29.9,29.0,00.0,38.8,31.7,29.3,0001.9,0031.64,0017.02,0015.17
2021-08-30 06:27:00,,0828.2,5.00,0.00,29.9,28.6,00.0,38.8,31.6,29.2,0002.0,0032.47,0017.02,0015.18
2021-08-30 06:28:00,,0828.2,5.00,0.00,29.8,26.9,00.0,38.8,31.2,29.3,0001.9,0031.98,0016.98,0015.18
2021-08-30 06:29:00,,0828.2,5.01,0.00,29.6,26.3,00.0,38.8,31.0,29.5,0001.9,0030.89,0016.96,0015.19
2021-08-30 06:30:00,,0828.2,4.99,0.00,29.6,26.5,00.0,38.8,31.0,29.7,0001.8,0031.56,0016.93,0015.19
2021-08-30 06:31:00,,0828.2,5.01,0.00,29.5,27.0,00.0,38.8,31.1,29.7,0001.7,0030.86,0016.91,0015.19
2021-08-30 06:32:00,,0828.2,5.00,0.00,29.5,27.3,00.0,38.7,31.1,29.8,0001.8,0030.22,0016.86,0015.18
2021-08-30 06:33:00,,0828.2,5.00,0.00,29.5,27.7,00.0,38.7,31.2,29.8,0001.8,0030.48,0016.85,0015.16
2021-08-30 06:34:00,,0828.2,5.00,0.00,29.5,27.9,00.0,38.7,31.3,29.8,0001.9,0031.43,0016.88,0015.15
2021-08-30 06:35:00,,0828.2,4.99,0.00,29.6,28.1,00.0,38.7,31.3,29.8,0002.0,0030.87,0016.96,0015.15
2021-08-30 06:36:00,,0828.2,5.01,0.00,29.6,28.3,00.0,38.7,31.3,29.7,0002.1,0029.89,0016.93,0015.13
2021-08-30 06:37:00,,0828.2,5.00,0.00,29.6,28.4,00.0,38.7,31.4,29.7,0002.0,0030.72,0016.96,0015.13
2021-08-30 06:38:00,,0828.2,4.99,0.00,29.7,28.5,00.0,38.7,31.4,29.6,0002.0,0029.25,0016.97,0015.15
2021-08-30 06:39:00,,0828.2,5.00,0.00,29.7,28.6,00.0,38.7,31.5,29.5,0002.0,0028.37,0016.94,0015.13
2021-08-30 06:40:00,,0828.2,5.01,0.00,29.7,28.7,00.0,38.7,31.5,29.5,0001.9,0028.97,0016.94,0015.12
2021-08-30 06:41:00,,0828.2,5.00,0.00,29.7,28.8,00.0,38.8,31.5,29.4,0001.7,0028.60,0016.96,0015.13
2021-08-30 06:42:00,,0828.1,4.99,0.00,29.8,28.8,00.0,38.8,31.6,29.2,0001.6,0028.61,0016.92,0015.09
2021-08-30 06:43:00,,0828.1,4.99,0.00,29.8,28.9,00.0,38.8,31.6,29.0,0001.6,0029.83,0016.85,0015.08
2021-08-30 06:44:00,,0828.1,5.01,0.00,29.8,28.9,00.0,38.8,31.7,28.8,0001.6,0029.56,0016.81,0015.09
2021-08-30 06:45:00,,0828.1,4.99,0.00,29.9,29.0,00.0,38.8,31.7,28.7,0001.7,0028.17,0016.76,0015.11
2021-08-30 06:46:00,,0828.1,5.00,0.00,29.9,28.8,00.0,38.9,31.7,28.6,0001.7,0027.75,0016.64,0015.14
2021-08-30 06:47:00,,0828.1,5.00,0.00,29.8,27.1,00.0,38.8,31.2,28.6,0001.9,0027.68,0016.60,0015.17
2021-08-30 06:48:00,,0828.2,5.00,0.00,29.6,26.1,00.0,38.8,31.0,29.0,0002.2,0026.34,0016.54,0015.20
2021-08-30 06:49:00,,0828.1,5.00,0.00,29.5,26.3,00.0,38.8,31.0,29.4,0002.1,0026.27,0016.51,0015.21
2021-08-30 06:50:00,,0828.2,4.99,0.00,29.5,26.7,00.0,38.8,31.0,29.8,0002.2,0025.80,0016.46,0015.24
2021-08-30 06:51:00,,0828.1,5.00,0.00,29.5,27.1,00.0,38.7,31.1,29.9,0002.3,0025.35,0016.47,0015.26
2021-08-30 06:52:00,,0828.1,5.01,0.00,29.5,27.5,00.0,38.7,31.1,29.9,0002.4,0025.07,0016.43,0015.29
2021-08-30 06:53:00,,0828.1,4.99,0.00,29.5,27.8,00.0,38.7,31.2,30.0,0002.5,0024.95,0016.42,0015.34
2021-08-30 06:54:00,,0828.1,5.00,0.00,29.5,28.0,00.0,38.7,31.3,29.9,0002.7,0023.47,0016.44,0015.35
2021-08-30 06:55:00,,0828.1,5.00,0.00,29.5,28.2,00.0,38.7,31.3,29.7,0002.7,0022.95,0016.43,0015.36
2021-08-30 06:56:00,,0828.2,5.00,0.00,29.6,28.3,00.0,38.7,31.4,29.5,0002.6,0023.10,0016.43,0015.36
2021-08-30 06:57:00,,0828.1,4.99,0.00,29.6,28.5,00.0,38.7,31.4,29.4,0002.6,0023.16,0016.41,0015.37
2021-08-30 06:58:00,,0828.1,5.00,0.00,29.6,28.6,00.0,38.7,31.4,29.4,0002.5,0022.94,0016.40,0015.36
2021-08-30 06:59:00,,0828.1,4.99,0.00,29.7,28.6,00.0,38.7,31.5,29.4,0002.3,0022.82,0016.41,0015.36
